{"data":{"norad_id":55983,"epoch":"2026-05-24T22:53:19.768992Z","epoch_age_seconds":89488,"freshness":"FRESH","line1":"1 55983U 23041C   26144.95370103  .00013603  00000+0  35549-3 0  9996","line2":"2 55983  42.0017 336.9675 0006545 202.1002 157.9557 15.38550557178359","mean_motion":15.38550557,"eccentricity":0.0006545,"inclination_deg":42.0017,"raan_deg":336.9675,"arg_perigee_deg":202.1002,"mean_anomaly_deg":157.9557,"bstar":0.00035549,"rev_number":17835,"period_min":93.594584425476,"perigee_km":445.92537762657,"apogee_km":454.86392555851,"semimajor_km":6828.5316515925,"source":"CELESTRAK","updated_at":"2026-05-25T13:37:59.250773Z"}}